CW7664 Weather Reports


Display with metric or nautical units.
time (UTC)temp
F
wind
direction
speed
MPH
gust
MPH
rain 1hr
in
rain 24hr
in
rain mn
in
humidity
%
barometer
mb
20260505123036 54 360 0.0 0.0 0.00 0.00 0.00 81 1012.0
20260505121531 54 360 0.0 0.0 0.00 0.00 0.00 81 1012.1
20260505120030 54 360 0.0 0.0 0.00 0.00 0.00 81 1012.1
20260505114529 54 360 0.0 0.0 0.00 0.00 0.00 80 1012.1
20260505113028 54 360 0.0 1.0 0.00 0.00 0.00 80 1012.1
20260505111535 53 360 0.0 0.0 0.00 0.00 0.00 80 1012.2
20260505101519 56 32 0.0 2.0 0.00 0.00 0.00 77 1012.2
20260505100018 57 355 0.0 1.0 0.00 0.00 0.00 77 1012.3
20260505094514 58 355 0.0 0.0 0.00 0.00 0.00 76 1012.3
20260505093010 58 355 0.0 0.0 0.00 0.00 0.00 75 1012.4
20260505091508 58 355 0.0 0.0 0.00 0.00 0.00 74 1012.6
20260505090006 58 355 0.0 0.0 0.00 0.00 0.00 74 1012.7
20260505084504 58 355 0.0 0.0 0.00 0.00 0.00 74 1012.9
20260505083007 59 355 0.0 1.0 0.00 0.00 0.00 75 1013.0
20260505081501 59 355 0.0 2.0 0.00 0.00 0.00 74 1013.0
20260505080112 59 240 0.0 1.0 0.00 0.00 0.00 74 1013.2
20260505074557 59 240 0.0 1.0 0.00 0.00 0.00 73 1013.2
20260505073057 59 240 0.0 1.0 0.00 0.00 0.00 73 1013.3
20260505071607 59 342 0.0 1.0 0.00 0.00 0.00 73 1013.2
20260505070056 59 342 0.0 1.0 0.00 0.00 0.00 73 1013.3
20260505064556 59 355 0.0 1.0 0.00 0.00 0.00 73 1013.3
20260505063053 59 360 0.0 1.0 0.00 0.00 0.00 72 1013.3
20260505061558 59 252 0.0 2.0 0.00 0.00 0.00 71 1013.3
20260505060051 59 282 0.0 2.0 0.00 0.00 0.00 71 1013.3
20260505054556 59 267 0.0 2.0 0.00 0.00 0.00 70 1013.4
20260505053101 59 281 1.0 2.0 0.00 0.00 0.00 70 1013.4
20260505051551 58 306 0.0 1.0 0.00 0.00 0.00 70 1013.4
20260505041552 60 296 0.0 3.0 0.00 0.00 0.00 66 1013.3
20260505040051 61 246 1.0 4.0 0.00 0.00 0.00 65 1013.1
20260505034548 61 200 1.0 3.0 0.00 0.00 0.00 64 1013.2
20260505033049 62 247 2.0 5.0 0.00 0.00 0.00 63 1013.2
20260505031547 62 209 1.0 4.0 0.00 0.00 0.00 64 1013.1
20260505030048 62 306 1.0 4.0 0.00 0.00 0.00 63 1012.9
20260505024547 63 263 1.0 5.0 0.00 0.00 0.00 63 1012.7
20260505023051 63 239 2.0 7.0 0.00 0.00 0.00 62 1012.6
20260505021546 63 200 1.0 6.0 0.00 0.00 0.00 61 1012.6
20260505020045 64 230 3.0 7.0 0.00 0.00 0.00 64 1012.7
20260505014545 65 207 3.0 9.0 0.00 0.00 0.00 59 1012.7
20260505013044 65 195 2.0 6.0 0.00 0.00 0.00 59 1012.9
20260505011551 65 164 2.0 9.0 0.00 0.00 0.00 56 1013.0
20260505010047 66 100 2.0 8.0 0.00 0.00 0.00 54 1013.1
20260505004543 66 241 4.0 11.0 0.00 0.00 0.00 59 1013.1
20260505003042 66 207 3.0 11.0 0.00 0.00 0.00 60 1013.1
20260505001542 67 238 3.0 8.0 0.00 0.00 0.00 58 1012.9
20260505000041 67 167 6.0 11.0 0.00 0.00 0.00 58 1012.7
20260504234542 68 216 5.0 12.0 0.00 0.00 0.00 55 1012.7
20260504233042 68 13 4.0 13.0 0.00 0.00 0.00 57 1012.7
20260504231541 69 213 5.0 12.0 0.00 0.00 0.00 54 1012.7
20260504230039 69 224 5.0 15.0 0.00 0.00 0.00 53 1012.8
20260504224538 70 200 6.0 10.0 0.00 0.00 0.00 51 1013.0
20260504223038 70 249 5.0 14.0 0.00 0.00 0.00 47 1013.0
20260504221540 69 183 5.0 11.0 0.00 0.00 0.00 49 1013.2
20260504220041 68 229 5.0 15.0 0.00 0.00 0.00 50 1013.5
20260504214547 68 260 4.0 13.0 0.00 0.00 0.00 50 1013.6
20260504213047 68 184 5.0 11.0 0.00 0.00 0.00 49 1013.8
20260504211537 69 210 5.0 13.0 0.00 0.00 0.00 48 1013.8
20260504210034 70 192 7.0 17.0 0.00 0.00 0.00 49 1013.7
20260504204534 69 230 5.0 11.0 0.00 0.00 0.00 47 1013.7
20260504203033 70 284 6.0 13.0 0.00 0.00 0.00 45 1013.7
20260504201533 70 215 7.0 20.0 0.00 0.00 0.00 47 1013.6
20260504200039 69 209 6.0 15.0 0.00 0.00 0.00 47 1013.6
20260504194531 70 317 7.0 13.0 0.00 0.00 0.00 45 1013.4
20260504193030 70 232 6.0 14.0 0.00 0.00 0.00 47 1013.4
20260504191543 71 218 5.0 13.0 0.00 0.00 0.00 42 1013.4
20260504190027 71 179 4.0 11.0 0.00 0.00 0.00 41 1013.4
20260504184527 71 215 3.0 8.0 0.00 0.00 0.00 44 1013.5
20260504183038 71 223 4.0 7.0 0.00 0.00 0.00 43 1013.7
20260504181526 71 261 3.0 7.0 0.00 0.00 0.00 45 1013.8
20260504180021 69 182 3.0 7.0 0.00 0.00 0.00 49 1013.8
20260504174520 68 201 6.0 10.0 0.00 0.00 0.00 52 1013.8
20260504173016 68 186 4.0 12.0 0.00 0.00 0.00 51 1013.7
20260504171514 68 270 2.0 7.0 0.00 0.00 0.00 54 1013.8